GW5352 Weather Reports


Display with metric or nautical units.
time (UTC)temp
F
wind
direction
speed
MPH
gust
MPH
rain 1hr
in
rain 24hr
in
rain mn
in
humidity
%
barometer
mb
20260507054520 41 192 1.0 4.0 0.02 0.08 0.08 88 1015.1
20260507054012 40 211 1.0 4.0 0.03 0.08 0.08 88 1015.1
20260507053507 40 181 1.0 3.0 0.04 0.07 0.07 89 1015.1
20260507053044 40 226 1.0 5.0 0.05 0.07 0.07 89 1015.0
20260507052510 40 227 1.0 5.0 0.05 0.07 0.07 90 1015.0
20260507052010 40 251 2.0 5.0 0.05 0.07 0.07 90 1015.1
20260507051527 40 136 0.0 4.0 0.05 0.07 0.07 90 1015.0
20260507051009 40 164 0.0 3.0 0.05 0.07 0.07 90 1014.9
20260507050510 40 98 1.0 6.0 0.06 0.07 0.07 89 1014.8
20260507050021 40 98 2.0 6.0 0.06 0.07 0.07 89 1014.9
20260507045510 40 132 3.0 9.0 0.06 0.07 0.07 89 1014.9
20260507045009 40 158 3.0 10.0 0.06 0.07 0.07 88 1015.0
20260507044517 40 158 4.0 12.0 0.05 0.06 0.06 87 1015.1
20260507044010 40 209 5.0 12.0 0.04 0.05 0.05 87 1015.1
20260507043508 40 231 5.0 12.0 0.02 0.03 0.03 86 1015.0
20260507043025 40 232 6.0 15.0 0.01 0.02 0.02 86 1014.9
20260507042509 41 212 5.0 14.0 0.01 0.02 0.02 85 1015.0
20260507042008 41 198 3.0 13.0 0.02 0.02 0.02 85 1015.0
20260507041525 41 249 5.0 13.0 0.02 0.02 0.02 84 1015.0
20260507041010 42 219 5.0 14.0 0.02 0.02 0.02 83 1014.9
20260507040512 42 252 6.0 14.0 0.01 0.01 0.01 82 1014.8
20260507040028 43 232 5.0 15.0 0.01 0.01 0.01 80 1014.7
20260507035510 43 219 5.0 15.0 0.01 0.01 0.01 80 1014.6
20260507035006 44 211 6.0 14.0 0.01 0.01 0.01 79 1014.5
20260507034532 44 225 1.0 5.0 0.01 0.01 0.01 79 1014.5
20260507034005 44 242 2.0 2.0 0.01 0.01 0.01 77 1014.3
20260507033507 44 272 1.0 3.0 0.01 0.01 0.01 78 1014.0
20260507033032 44 175 0.0 4.0 0.01 0.01 0.01 77 1014.0
20260507032509 44 244 1.0 4.0 0.01 0.01 0.01 77 1014.0
20260507032011 45 166 0.0 4.0 0.00 0.00 0.00 76 1014.0
20260507031516 45 219 2.0 4.0 0.00 0.00 0.00 77 1013.9
20260507031013 45 241 1.0 4.0 0.00 0.00 0.00 78 1013.9
20260507030510 45 244 2.0 4.0 0.00 0.00 0.00 76 1013.9
20260507030027 46 259 1.0 4.0 0.00 0.00 0.00 74 1013.8
20260507025508 46 232 1.0 4.0 0.00 0.00 0.00 75 1013.8
20260507025012 46 246 3.0 4.0 0.00 0.00 0.00 74 1013.7
20260507024526 46 203 2.0 2.0 0.00 0.00 0.00 75 1013.7
20260507024007 45 266 0.0 3.0 0.00 0.00 0.00 74 1013.7
20260507023506 45 225 1.0 3.0 0.00 0.00 0.00 72 1013.6
20260507023027 46 242 1.0 4.0 0.00 0.00 0.00 75 1013.6
20260507022508 45 229 2.0 4.0 0.00 0.00 0.00 76 1013.6
20260507022009 45 249 2.0 3.0 0.00 0.00 0.00 76 1013.5
20260507021526 45 236 1.0 6.0 0.00 0.00 0.00 76 1013.4
20260507021012 45 249 2.0 6.0 0.00 0.00 0.00 77 1013.5
20260507020510 45 274 2.0 4.0 0.00 0.00 0.00 76 1013.5
20260507020022 45 286 2.0 4.0 0.00 0.00 0.00 75 1013.5
20260507015508 46 260 2.0 5.0 0.00 0.00 0.00 75 1013.5
20260507015017 45 269 3.0 6.0 0.00 0.00 0.00 75 1013.5
20260507014518 45 253 1.0 8.0 0.00 0.00 0.00 77 1013.5
20260507014012 45 304 4.0 8.0 0.00 0.00 0.00 75 1013.5
20260507013505 45 226 3.0 7.0 0.00 0.00 0.00 74 1013.5
20260507013026 46 261 1.0 9.0 0.00 0.00 0.00 75 1013.5
20260507012508 46 286 3.0 9.0 0.00 0.00 0.00 74 1013.5
20260507012004 46 240 5.0 9.0 0.00 0.00 0.00 71 1013.4
20260507011514 46 259 5.0 9.0 0.00 0.00 0.00 70 1013.5
20260507011004 46 238 4.0 10.0 0.00 0.00 0.00 71 1013.5
20260507010503 46 262 4.0 12.0 0.00 0.00 0.00 74 1013.5
20260507010006 46 226 6.0 12.0 0.00 0.00 0.00 70 1013.5
20260507005508 46 264 4.0 14.0 0.00 0.00 0.00 73 1013.4
20260507005003 47 348 5.0 14.0 0.00 0.00 0.00 71 1013.4
20260507004507 46 263 3.0 9.0 0.00 0.00 0.00 74 1013.4
20260507004003 47 327 3.0 8.0 0.00 0.00 0.00 73 1013.3
20260507003503 47 291 4.0 8.0 0.00 0.00 0.00 73 1013.3
20260507003004 47 267 4.0 9.0 0.00 0.00 0.00 73 1013.3
20260507002501 46 298 6.0 9.0 0.00 0.00 0.00 74 1013.2
20260507002003 46 244 4.0 8.0 0.00 0.00 0.00 72 1013.3
20260507001504 46 309 6.0 8.0 0.00 0.00 0.00 73 1013.2
20260507001002 47 268 4.0 10.0 0.00 0.00 0.00 72 1013.1
20260507000503 46 252 6.0 10.0 0.00 0.00 0.00 71 1013.2
20260507000007 47 244 5.0 9.0 0.00 0.00 0.00 72 1013.1
20260506235505 47 252 5.0 11.0 0.00 0.00 0.00 70 1013.1
20260506235003 47 302 4.0 11.0 0.00 0.00 0.00 72 1013.0
20260506234503 47 269 7.0 11.0 0.00 0.00 0.00 71 1013.1
20260506234003 47 334 6.0 10.0 0.00 0.00 0.00 71 1013.0
20260506233502 47 283 6.0 11.0 0.00 0.00 0.00 71 1013.0
20260506233009 47 267 5.0 11.0 0.00 0.00 0.00 72 1013.0
20260506232505 47 263 4.0 10.0 0.00 0.00 0.00 71 1013.0
20260506232006 47 281 4.0 11.0 0.00 0.00 0.00 70 1013.0
20260506231524 47 306 6.0 11.0 0.00 0.00 0.00 69 1013.0
20260506231005 48 292 3.0 12.0 0.00 0.00 0.00 68 1012.9
20260506230502 47 276 6.0 15.0 0.00 0.00 0.00 67 1012.9
20260506230008 48 222 9.0 15.0 0.00 0.00 0.00 63 1012.8
20260506225502 48 238 4.0 12.0 0.00 0.00 0.00 67 1012.9
20260506225003 47 231 5.0 12.0 0.00 0.00 0.00 65 1012.8
20260506224506 47 191 6.0 16.0 0.00 0.00 0.00 66 1012.7
20260506224007 47 240 9.0 16.0 0.00 0.00 0.00 65 1012.8
20260506223505 47 242 8.0 16.0 0.00 0.00 0.00 65 1012.7
20260506223007 46 244 6.0 15.0 0.00 0.00 0.00 65 1012.7
20260506222504 46 256 6.0 17.0 0.00 0.00 0.00 64 1012.6
20260506222006 47 244 10.0 18.0 0.00 0.00 0.00 63 1012.6
20260506221512 47 286 9.0 18.0 0.00 0.00 0.00 62 1012.6
20260506221004 47 220 9.0 17.0 0.00 0.00 0.00 61 1012.5
20260506220507 48 296 5.0 11.0 0.00 0.00 0.00 62 1012.5
20260506220022 48 277 6.0 11.0 0.00 0.00 0.00 63 1012.5
20260506215507 48 348 4.0 8.0 0.00 0.00 0.00 64 1012.4
20260506215002 48 338 4.0 7.0 0.00 0.00 0.00 65 1012.4
20260506214509 48 13 3.0 8.0 0.00 0.00 0.00 65 1012.4
20260506214003 48 14 3.0 9.0 0.00 0.00 0.00 67 1012.3
20260506213503 48 273 4.0 9.0 0.00 0.00 0.00 65 1012.3
20260506213010 48 292 3.0 10.0 0.00 0.00 0.00 66 1012.2
20260506212504 48 329 5.0 10.0 0.00 0.00 0.00 66 1012.2
20260506212004 48 360 5.0 9.0 0.00 0.00 0.00 66 1012.2
20260506211509 48 9 4.0 9.0 0.00 0.00 0.00 65 1012.2
20260506211003 47 17 3.0 6.0 0.00 0.00 0.00 65 1012.1
20260506210502 47 18 2.0 6.0 0.00 0.00 0.00 66 1012.0
20260506210012 47 11 3.0 6.0 0.00 0.00 0.00 65 1012.0
20260506205506 48 327 2.0 5.0 0.00 0.00 0.00 65 1012.0
20260506205006 47 310 1.0 6.0 0.00 0.00 0.00 66 1012.0
20260506204509 47 167 1.0 6.0 0.00 0.00 0.00 66 1012.0
20260506204010 47 337 1.0 5.0 0.00 0.00 0.00 66 1011.9
20260506203504 48 322 2.0 5.0 0.00 0.00 0.00 67 1012.0
20260506203004 47 300 2.0 8.0 0.00 0.00 0.00 68 1012.0
20260506202503 46 28 3.0 9.0 0.00 0.00 0.00 68 1011.9
20260506202007 47 5 2.0 9.0 0.00 0.00 0.00 68 1011.8
20260506201506 47 5 3.0 8.0 0.00 0.00 0.00 67 1011.8
20260506201004 47 295 3.0 8.0 0.00 0.00 0.00 69 1011.7
20260506200503 47 331 3.0 8.0 0.00 0.00 0.00 69 1011.7
20260506200012 46 326 3.0 8.0 0.00 0.00 0.00 69 1011.6
20260506195502 46 248 4.0 7.0 0.00 0.00 0.00 69 1011.6
20260506195003 46 291 4.0 8.0 0.00 0.00 0.00 69 1011.6
20260506194508 45 314 3.0 8.0 0.00 0.00 0.00 71 1011.5
20260506194004 46 321 4.0 8.0 0.00 0.00 0.00 69 1011.6
20260506193507 46 333 4.0 9.0 0.00 0.00 0.00 70 1011.5
20260506193008 46 323 4.0 10.0 0.00 0.00 0.00 70 1011.5
20260506192507 46 286 4.0 11.0 0.00 0.00 0.00 69 1011.5
20260506192008 46 311 6.0 11.0 0.00 0.00 0.00 69 1011.5
20260506191506 46 223 2.0 4.0 0.00 0.00 0.00 65 1011.5
20260506191005 46 219 3.0 6.0 0.00 0.00 0.00 66 1011.5
20260506190504 47 238 3.0 6.0 0.00 0.00 0.00 65 1011.5
20260506190012 47 247 2.0 4.0 0.00 0.00 0.00 67 1011.5
20260506185505 46 209 1.0 3.0 0.00 0.00 0.00 67 1011.4
20260506185008 45 287 2.0 3.0 0.00 0.00 0.00 69 1011.4
20260506184516 45 234 1.0 3.0 0.00 0.00 0.00 70 1011.5
20260506184008 44 233 2.0 4.0 0.00 0.00 0.00 70 1011.5
20260506183505 44 238 2.0 4.0 0.00 0.00 0.00 71 1011.4
20260506183010 45 124 0.0 3.0 0.00 0.00 0.00 71 1011.4
20260506182504 44 136 0.0 3.0 0.00 0.00 0.00 71 1011.4
20260506182007 44 182 1.0 3.0 0.00 0.00 0.00 71 1011.4
20260506181512 44 209 1.0 3.0 0.00 0.00 0.00 71 1011.3
20260506181008 44 331 0.0 2.0 0.00 0.00 0.00 72 1011.3
20260506180506 44 252 1.0 2.0 0.00 0.00 0.00 73 1011.3
20260506180010 44 178 0.0 2.0 0.00 0.00 0.00 72 1011.3
20260506175506 44 143 1.0 2.0 0.00 0.00 0.00 73 1011.3
20260506175006 43 217 0.0 2.0 0.00 0.00 0.00 73 1011.2
20260506174510 43 132 0.0 2.0 0.00 0.00 0.00 74 1011.2
20260506174004 43 92 1.0 2.0 0.00 0.00 0.00 73 1011.2
20260506173505 43 107 0.0 2.0 0.00 0.00 0.00 74 1011.2
20260506173009 43 82 1.0 2.0 0.00 0.00 0.00 74 1011.2
20260506172506 42 148 0.0 2.0 0.00 0.00 0.00 75 1011.2
20260506172006 42 152 0.0 2.0 0.00 0.00 0.00 75 1011.1
20260506171510 42 170 0.0 0.0 0.00 0.00 0.00 75 1011.1
20260506171004 42 244 0.0 1.0 0.00 0.00 0.00 75 1011.1
20260506170505 42 210 0.0 2.0 0.00 0.00 0.00 76 1011.1
20260506170012 42 205 0.0 2.0 0.00 0.00 0.00 76 1011.0
20260506165511 42 229 1.0 2.0 0.00 0.00 0.00 76 1011.0
20260506165007 41 211 1.0 2.0 0.00 0.00 0.00 76 1010.8
20260506164506 41 148 0.0 3.0 0.00 0.00 0.00 76 1010.9
20260506164005 41 148 0.0 3.0 0.00 0.00 0.00 76 1010.8
20260506163504 41 136 0.0 2.0 0.00 0.00 0.00 76 1010.8
20260506163010 41 87 0.0 2.0 0.00 0.00 0.00 76 1010.7
20260506162505 41 105 0.0 3.0 0.00 0.00 0.00 77 1010.6
20260506162007 41 42 1.0 3.0 0.00 0.00 0.00 76 1010.6
20260506161518 41 72 1.0 3.0 0.00 0.00 0.00 76 1010.6
20260506161004 41 61 1.0 3.0 0.00 0.00 0.00 77 1010.6
20260506160510 41 82 0.0 3.0 0.00 0.00 0.00 77 1010.6
20260506160014 41 45 1.0 3.0 0.00 0.00 0.00 78 1010.5
20260506155506 40 32 1.0 5.0 0.00 0.00 0.00 78 1010.4
20260506155006 40 40 1.0 4.0 0.00 0.00 0.00 78 1010.4
20260506154510 40 44 2.0 4.0 0.00 0.00 0.00 78 1010.3
20260506154008 40 47 2.0 5.0 0.00 0.00 0.00 78 1010.4
20260506153504 40 39 2.0 5.0 0.00 0.00 0.00 78 1010.4
20260506153010 40 26 2.0 5.0 0.00 0.00 0.00 78 1010.4
20260506152505 40 13 3.0 5.0 0.00 0.00 0.00 78 1010.4
20260506152007 40 41 2.0 5.0 0.00 0.00 0.00 78 1010.4
20260506151517 40 26 3.0 5.0 0.00 0.00 0.00 78 1010.3
20260506151010 40 45 2.0 5.0 0.00 0.00 0.00 78 1010.3
20260506150506 39 40 1.0 4.0 0.00 0.00 0.00 78 1010.2
20260506150014 39 46 2.0 4.0 0.00 0.00 0.00 78 1010.2
20260506145508 39 45 1.0 4.0 0.00 0.00 0.00 78 1010.1
20260506145006 39 49 2.0 4.0 0.00 0.00 0.00 78 1010.0
20260506144520 39 47 2.0 4.0 0.00 0.00 0.00 78 1010.0
20260506144010 39 27 2.0 4.0 0.00 0.00 0.00 78 1010.0
20260506143506 39 37 1.0 4.0 0.00 0.00 0.00 78 1010.1
20260506143012 39 36 2.0 4.0 0.00 0.00 0.00 78 1010.1
20260506142508 39 29 2.0 3.0 0.00 0.00 0.00 78 1010.0
20260506142007 38 27 1.0 3.0 0.00 0.00 0.00 78 1010.0
20260506141512 38 37 1.0 3.0 0.00 0.00 0.00 78 1010.0
20260506141011 38 11 1.0 3.0 0.00 0.00 0.00 78 1010.0
20260506140512 38 20 1.0 2.0 0.00 0.00 0.00 78 1010.1
20260506140020 38 16 0.0 1.0 0.00 0.00 0.00 79 1010.1
20260506135506 38 16 0.0 2.0 0.00 0.00 0.00 79 1010.1
20260506135010 38 16 0.0 3.0 0.00 0.00 0.00 80 1010.1
20260506134512 38 360 2.0 3.0 0.00 0.00 0.00 80 1010.1
20260506134006 38 352 1.0 3.0 0.00 0.00 0.00 80 1010.0
20260506133509 37 26 0.0 2.0 0.00 0.00 0.00 81 1010.1
20260506133018 37 26 0.0 2.0 0.00 0.00 0.00 81 1010.0
20260506132507 37 86 0.0 0.0 0.00 0.00 0.00 81 1010.0
20260506132010 36 86 0.0 2.0 0.00 0.00 0.00 81 1009.9
20260506131518 36 127 0.0 2.0 0.00 0.00 0.00 81 1009.9
20260506131008 37 89 0.0 2.0 0.00 0.00 0.00 81 1009.9
20260506130505 37 62 0.0 2.0 0.00 0.00 0.00 80 1009.9
20260506130017 37 69 1.0 2.0 0.00 0.00 0.00 80 1009.9
20260506125508 37 86 1.0 2.0 0.00 0.00 0.00 80 1009.8
20260506125005 37 120 0.0 0.0 0.00 0.00 0.00 80 1009.8
20260506124515 37 95 0.0 0.0 0.00 0.00 0.00 80 1009.7
20260506124010 36 95 0.0 0.0 0.00 0.00 0.00 80 1009.7
20260506123512 36 126 0.0 0.0 0.00 0.00 0.00 79 1009.7
20260506123019 37 126 0.0 2.0 0.00 0.00 0.00 78 1009.7
20260506122507 38 88 0.0 2.0 0.00 0.00 0.00 79 1009.6
20260506122014 38 86 0.0 2.0 0.00 0.00 0.00 78 1009.6
20260506121514 38 86 0.0 2.0 0.00 0.00 0.00 78 1009.5
20260506121005 38 102 0.0 0.0 0.00 0.00 0.00 78 1009.5
20260506120508 38 102 0.0 0.0 0.00 0.00 0.00 78 1009.5
20260506120026 38 102 0.0 0.0 0.00 0.00 0.00 78 1009.5
20260506115509 38 102 0.0 0.0 0.00 0.00 0.00 78 1009.5
20260506115006 38 102 0.0 1.0 0.00 0.00 0.00 78 1009.5
20260506114513 38 102 0.0 1.0 0.00 0.00 0.00 78 1009.4
20260506114007 38 109 1.0 2.0 0.00 0.00 0.00 77 1009.4
20260506113507 37 119 0.0 2.0 0.00 0.00 0.00 77 1009.4
20260506113022 37 119 1.0 2.0 0.00 0.00 0.00 76 1009.5
20260506112509 39 131 1.0 2.0 0.00 0.00 0.00 75 1009.5
20260506112007 39 315 0.0 2.0 0.00 0.00 0.00 75 1009.5
20260506111517 39 315 1.0 2.0 0.00 0.00 0.00 75 1009.5
20260506111008 40 329 1.0 2.0 0.00 0.00 0.00 74 1009.5
20260506110508 40 309 1.0 2.0 0.00 0.00 0.00 74 1009.5
20260506110019 40 317 0.0 2.0 0.00 0.00 0.00 74 1009.5
20260506105509 39 336 1.0 2.0 0.00 0.00 0.00 73 1009.4
20260506105012 39 342 1.0 2.0 0.00 0.00 0.00 71 1009.4
20260506104519 40 321 0.0 2.0 0.00 0.00 0.00 70 1009.5
20260506104012 41 322 0.0 2.0 0.00 0.00 0.00 69 1009.4
20260506103508 41 323 1.0 3.0 0.00 0.00 0.00 69 1009.4
20260506103018 41 295 1.0 6.0 0.00 0.00 0.00 69 1009.3
20260506102507 41 292 3.0 6.0 0.00 0.00 0.00 69 1009.3
20260506102010 40 253 2.0 4.0 0.00 0.00 0.00 70 1009.3
20260506101522 39 265 1.0 3.0 0.00 0.00 0.00 71 1009.3
20260506101008 39 13 0.0 0.0 0.00 0.00 0.00 70 1009.3
20260506100511 40 13 0.0 0.0 0.00 0.00 0.00 68 1009.3
20260506100020 40 13 0.0 0.0 0.00 0.00 0.00 68 1009.3
20260506095506 40 13 0.0 0.0 0.00 0.00 0.00 69 1009.2
20260506095007 40 13 0.0 2.0 0.00 0.00 0.00 70 1009.1
20260506094519 40 13 0.0 2.0 0.00 0.00 0.00 70 1009.0
20260506094005 39 327 1.0 2.0 0.00 0.00 0.00 71 1009.0
20260506093507 39 242 2.0 2.0 0.00 0.00 0.00 70 1008.9
20260506093014 40 15 0.0 2.0 0.00 0.00 0.00 67 1008.9
20260506092505 40 15 1.0 2.0 0.00 0.00 0.00 67 1008.9
20260506092007 40 19 0.0 2.0 0.00 0.00 0.00 67 1008.9
20260506091517 40 45 1.0 2.0 0.00 0.00 0.00 68 1008.9
20260506091007 40 44 0.0 1.0 0.00 0.00 0.00 68 1008.7
20260506090507 40 5 0.0 1.0 0.00 0.00 0.00 69 1008.7
20260506090020 40 5 0.0 1.0 0.00 0.00 0.00 69 1008.7
20260506085507 40 5 0.0 2.0 0.00 0.00 0.00 69 1008.6
20260506085009 40 5 1.0 2.0 0.00 0.00 0.00 69 1008.6
20260506084525 40 334 0.0 2.0 0.00 0.00 0.00 69 1008.6
20260506084002 40 326 0.0 2.0 0.00 0.00 0.00 69 1008.6
20260506083503 40 326 0.0 3.0 0.00 0.00 0.00 69 1008.5
20260506083011 39 329 2.0 3.0 0.00 0.00 0.00 70 1008.5
20260506082507 39 9 1.0 2.0 0.00 0.00 0.00 70 1008.5
20260506082006 39 175 0.0 2.0 0.00 0.00 0.00 71 1008.3
20260506081517 38 146 1.0 2.0 0.00 0.00 0.00 71 1008.3
20260506081009 38 249 1.0 3.0 0.00 0.00 0.00 71 1008.3
20260506080507 38 152 1.0 3.0 0.00 0.00 0.00 71 1008.1
20260506073511 42 91 2.0 5.0 0.00 0.00 0.00 62 1007.8
20260506073014 42 79 3.0 7.0 0.00 0.00 0.00 63 1007.8
20260506072507 42 106 3.0 7.0 0.00 0.00 0.00 63 1007.8
20260506072007 42 48 1.0 2.0 0.00 0.00 0.00 63 1007.8
20260506071509 42 116 0.0 2.0 0.00 0.00 0.00 63 1007.8
20260506071008 42 116 0.0 3.0 0.00 0.00 0.00 63 1007.8
20260506070507 43 113 1.0 3.0 0.00 0.00 0.00 62 1007.8
20260506062510 42 132 0.0 2.0 0.00 0.00 0.00 62 1007.2
20260506062009 43 132 0.0 2.0 0.00 0.00 0.00 62 1007.2
20260506061526 43 121 0.0 2.0 0.00 0.00 0.00 61 1007.0
20260506061004 43 120 0.0 3.0 0.00 0.00 0.00 61 1007.0
20260506060507 44 120 1.0 4.0 0.00 0.00 0.00 60 1007.0